Overview Statistics Trail Chart Weather Telemetry Raw packets
 

This is the latest recevied weather packets stored in our database for station/object OK4PZ-5. If no packets are shown the sender has not sent any weather packets the latest 10 day(s).

<< 33 34 35 36 37 38 >>
Time Temp. Humidity Pressure Rain* Wind** Luminosity Snow
1787819402 23.33° C 59% 1020 hPa 0 mm - - -
1787818503 22.78° C 62% 1020 hPa 0 mm - - -
1787817602 22.22° C 63% 1020 hPa 0 mm - - -
1787816702 22.78° C 63% 1020 hPa 0 mm - - -
1787815802 21.11° C 66% 1021 hPa 0 mm - - -
1787814902 20.56° C 68% 1020 hPa 0 mm - - -
1787814009 20° C 70% 1020 hPa 0 mm - - -
1787813102 19.44° C 71% 1021 hPa 0 mm - - -
1787812202 18.89° C 73% 1021 hPa 0 mm - - -
1787811303 18.33° C 76% 1021 hPa 0 mm - - -
1787810402 17.22° C 78% 1021 hPa 0 mm - - -
1787809502 16.67° C 80% 1021 hPa 0 mm - - -
1787808602 15.56° C 84% 1020 hPa 0 mm - - -
1787807702 15° C 86% 1020 hPa 0 mm - - -
1787806802 14.44° C 87% 1020 hPa 0 mm - - -
1787805902 13.33° C 90% 1020 hPa 0 mm - - -
1787804102 13.33° C 89% 1020 hPa 0 mm - - -
1787803202 13.33° C 89% 1020 hPa 0 mm - - -
1787802303 13.33° C 88% 1020 hPa 0 mm - - -
1787801403 13.89° C 87% 1020 hPa 0 mm - - -
1787800502 13.89° C 87% 1020 hPa 0 mm - - -
1787799602 13.89° C 87% 1020 hPa 0 mm - - -
1787798703 13.89° C 87% 1020 hPa 0 mm - - -
1787797802 13.89° C 86% 1020 hPa 0 mm - - -
1787796902 13.89° C 86% 1020 hPa 0 mm - - -

* Rain latest hour (hover to see other rain measurements)
** Current wind speed in m/s (hover to see current wind gust speed)